owner,sensor,date,latitude,longitude,vertical_datum,direction_of_sea_water_velocity,sea_water_speed,upward_sea_water_velocity,qcFlag 
TABS,ioos:station:wmo:42048:1,1997-10-01T00:00:00Z,27.9396,-96.8429,2.0,10.95656212,23.51869469,-99999.0,'11111222,11111222,99999999' 
TABS,ioos:station:wmo:42048:1,1997-10-01T00:30:00Z,27.9396,-96.8429,2.0,12.48826703,21.36548619,-99999.0,'11111222,11111222,99999999' 
TABS,ioos:station:wmo:42048:1,1997-10-01T01:00:00Z,27.9396,-96.8429,2.0,16.33805106,20.65401898,-99999.0,'11111222,11111222,99999999' 
TABS,ioos:station:wmo:42048:1,1997-10-01T01:30:00Z,27.9396,-96.8429,2.0,18.44385426,20.73505486,-99999.0,'11111222,11111222,99999999' 
TABS,ioos:station:wmo:42048:1,1997-10-01T02:00:00Z,27.9396,-96.8429,2.0,18.29548449,19.4638768,-99999.0,'11111222,11111222,99999999' 
TABS,ioos:station:wmo:42048:1,1997-10-01T02:30:00Z,27.9396,-96.8429,2.0,24.90794683,18.40159232,-99999.0,'11111222,11111222,99999999' 
TABS,ioos:station:wmo:42048:1,1997-10-01T03:00:00Z,27.9396,-96.8429,2.0,16.68765545,18.66611904,-99999.0,'11111222,11111222,99999999' 
TABS,ioos:station:wmo:42048:1,1997-10-01T03:30:00Z,27.9396,-96.8429,2.0,15.2240612,19.30755811,-99999.0,'11111222,11111222,99999999' 
TABS,ioos:station:wmo:42048:1,1997-10-01T04:00:00Z,27.9396,-96.8429,2.0,28.87437033,18.20295855,-99999.0,'11111222,11111222,99999999' 
TABS,ioos:station:wmo:42048:1,1997-10-01T04:30:00Z,27.9396,-96.8429,2.0,19.17398734,18.14665809,-99999.0,'11111222,11111222,99999999' 
TABS,ioos:station:wmo:42048:1,1997-10-01T05:00:00Z,27.9396,-96.8429,2.0,26.56519952,17.32952683,-99999.0,'11111222,11111222,99999999' 
TABS,ioos:station:wmo:42048:1,1997-10-01T05:30:00Z,27.9396,-96.8429,2.0,30.66447017,18.70560611,-99999.0,'11111222,11111222,99999999' 
TABS,ioos:station:wmo:42048:1,1997-10-01T06:00:00Z,27.9396,-96.8429,2.0,34.3551439,17.68503322,-99999.0,'11111222,11111222,99999999' 
TABS,ioos:station:wmo:42048:1,1997-10-01T06:30:00Z,27.9396,-96.8429,2.0,29.32138027,17.9495571,-99999.0,'11111222,11111222,99999999' 
TABS,ioos:station:wmo:42048:1,1997-10-01T07:00:00Z,27.9396,-96.8429,2.0,32.43642592,18.88651635,-99999.0,'11111222,11111222,99999999' 
TABS,ioos:station:wmo:42048:1,1997-10-01T07:30:00Z,27.9396,-96.8429,2.0,26.7555498,20.19180527,-99999.0,'11111222,11111222,99999999' 
TABS,ioos:station:wmo:42048:1,1997-10-01T08:00:00Z,27.9396,-96.8429,2.0,33.32710333,19.25680399,-99999.0,'11111222,11111222,99999999' 
TABS,ioos:station:wmo:42048:1,1997-10-01T08:30:00Z,27.9396,-96.8429,2.0,30.82780067,22.38234349,-99999.0,'11111222,11111222,99999999' 
TABS,ioos:station:wmo:42048:1,1997-10-01T09:00:00Z,27.9396,-96.8429,2.0,32.03641505,21.6228999,-99999.0,'11111222,11111222,99999999' 
TABS,ioos:station:wmo:42048:1,1997-10-01T09:30:00Z,27.9396,-96.8429,2.0,29.86241396,25.42593361,-99999.0,'11111222,11111222,99999999' 
TABS,ioos:station:wmo:42048:1,1997-10-01T10:00:00Z,27.9396,-96.8429,2.0,29.29246825,25.28278861,-99999.0,'11111222,11111222,99999999' 
TABS,ioos:station:wmo:42048:1,1997-10-01T10:30:00Z,27.9396,-96.8429,2.0,27.15134919,25.79215772,-99999.0,'11111222,11111222,99999999' 
TABS,ioos:station:wmo:42048:1,1997-10-01T11:00:00Z,27.9396,-96.8429,2.0,27.3554954,28.85696623,-99999.0,'11111222,11111222,99999999' 
TABS,ioos:station:wmo:42048:1,1997-10-01T11:30:00Z,27.9396,-96.8429,2.0,28.18064032,28.39593281,-99999.0,'11111222,11111222,99999999' 
TABS,ioos:station:wmo:42048:1,1997-10-01T12:00:00Z,27.9396,-96.8429,2.0,24.7525487,31.66962583,-99999.0,'11111222,11111222,99999999' 
TABS,ioos:station:wmo:42048:1,1997-10-01T12:30:00Z,27.9396,-96.8429,2.0,25.15117175,32.25839581,-99999.0,'11111222,11111222,99999999' 
TABS,ioos:station:wmo:42048:1,1997-10-01T13:00:00Z,27.9396,-96.8429,2.0,22.93044784,33.64895541,-99999.0,'11111222,11111222,99999999' 
TABS,ioos:station:wmo:42048:1,1997-10-01T13:30:00Z,27.9396,-96.8429,2.0,25.28873532,33.12438679,-99999.0,'11111222,11111222,99999999' 
TABS,ioos:station:wmo:42048:1,1997-10-01T14:00:00Z,27.9396,-96.8429,2.0,12.94042594,37.91282896,-99999.0,'11111222,11111222,99999999' 
TABS,ioos:station:wmo:42048:1,1997-10-01T14:30:00Z,27.9396,-96.8429,2.0,11.96406869,38.83352418,-99999.0,'11111222,11111222,99999999' 
TABS,ioos:station:wmo:42048:1,1997-10-01T15:00:00Z,27.9396,-96.8429,2.0,14.31531126,37.37033182,-99999.0,'11111222,11111222,99999999' 
TABS,ioos:station:wmo:42048:1,1997-10-01T15:30:00Z,27.9396,-96.8429,2.0,12.38199125,38.89467444,-99999.0,'11111222,11111222,99999999' 
TABS,ioos:station:wmo:42048:1,1997-10-01T16:00:00Z,27.9396,-96.8429,2.0,12.25841326,37.20832703,-99999.0,'11111222,11111222,99999999' 
TABS,ioos:station:wmo:42048:1,1997-10-01T16:30:00Z,27.9396,-96.8429,2.0,17.22563578,37.75335747,-99999.0,'11111222,11111222,99999999' 
TABS,ioos:station:wmo:42048:1,1997-10-01T17:00:00Z,27.9396,-96.8429,2.0,13.43169705,34.01023963,-99999.0,'11111222,11111222,99999999' 
TABS,ioos:station:wmo:42048:1,1997-10-01T17:30:00Z,27.9396,-96.8429,2.0,12.52710365,32.96475239,-99999.0,'11111222,11111222,99999999' 
TABS,ioos:station:wmo:42048:1,1997-10-01T18:00:00Z,27.9396,-96.8429,2.0,7.450034461,32.16148317,-99999.0,'11111222,11111222,99999999' 
TABS,ioos:station:wmo:42048:1,1997-10-01T18:30:00Z,27.9396,-96.8429,2.0,4.052690042,29.57394292,-99999.0,'11111222,11111222,99999999' 
TABS,ioos:station:wmo:42048:1,1997-10-01T19:00:00Z,27.9396,-96.8429,2.0,6.211348276,28.92982026,-99999.0,'11111222,11111222,99999999' 
TABS,ioos:station:wmo:42048:1,1997-10-01T19:30:00Z,27.9396,-96.8429,2.0,7.168468459,26.28544845,-99999.0,'11111222,11111222,99999999' 
TABS,ioos:station:wmo:42048:1,1997-10-01T20:00:00Z,27.9396,-96.8429,2.0,10.99657926,21.86139291,-99999.0,'11111222,11111222,99999999' 
TABS,ioos:station:wmo:42048:1,1997-10-01T20:30:00Z,27.9396,-96.8429,2.0,7.264932111,22.37965371,-99999.0,'11111222,11111222,99999999' 
TABS,ioos:station:wmo:42048:1,1997-10-01T21:00:00Z,27.9396,-96.8429,2.0,2.375043596,21.47844734,-99999.0,'11111222,11111222,99999999' 
TABS,ioos:station:wmo:42048:1,1997-10-01T21:30:00Z,27.9396,-96.8429,2.0,2.015884073,21.32319394,-99999.0,'11111222,11111222,99999999' 
TABS,ioos:station:wmo:42048:1,1997-10-01T22:00:00Z,27.9396,-96.8429,2.0,3.131884327,21.7825297,-99999.0,'11111222,11111222,99999999' 
TABS,ioos:station:wmo:42048:1,1997-10-01T22:30:00Z,27.9396,-96.8429,2.0,1.548364537,22.20810663,-99999.0,'11111222,11111222,99999999' 
TABS,ioos:station:wmo:42048:1,1997-10-01T23:00:00Z,27.9396,-96.8429,2.0,1.201480844,21.46471756,-99999.0,'11111222,11111222,99999999' 
TABS,ioos:station:wmo:42048:1,1997-10-01T23:30:00Z,27.9396,-96.8429,2.0,356.8899442,21.93230722,-99999.0,'11111222,11111222,99999999' 
TABS,ioos:station:wmo:42048:1,1997-10-02T00:00:00Z,27.9396,-96.8429,2.0,1.006078255,25.63395014,-99999.0,'11111222,11111222,99999999' 
TABS,ioos:station:wmo:42048:1,1997-10-02T00:30:00Z,27.9396,-96.8429,2.0,5.431887728,25.14289761,-99999.0,'11111222,11111222,99999999' 
TABS,ioos:station:wmo:42048:1,1997-10-02T01:00:00Z,27.9396,-96.8429,2.0,1.011998541,25.4839734,-99999.0,'11111222,11111222,99999999' 
TABS,ioos:station:wmo:42048:1,1997-10-02T01:30:00Z,27.9396,-96.8429,2.0,3.972082716,25.84206842,-99999.0,'11111222,11111222,99999999' 
TABS,ioos:station:wmo:42048:1,1997-10-02T02:00:00Z,27.9396,-96.8429,2.0,4.860281999,24.66869474,-99999.0,'11111222,11111222,99999999' 
TABS,ioos:station:wmo:42048:1,1997-10-02T02:30:00Z,27.9396,-96.8429,2.0,5.885172027,23.21233508,-99999.0,'11111222,11111222,99999999' 
TABS,ioos:station:wmo:42048:1,1997-10-02T03:00:00Z,27.9396,-96.8429,2.0,7.398512417,23.14266406,-99999.0,'11111222,11111222,99999999' 
TABS,ioos:station:wmo:42048:1,1997-10-02T03:30:00Z,27.9396,-96.8429,2.0,8.813467171,23.36588325,-99999.0,'11111222,11111222,99999999' 
TABS,ioos:station:wmo:42048:1,1997-10-02T04:00:00Z,27.9396,-96.8429,2.0,9.100408536,27.31379322,-99999.0,'11111222,11111222,99999999' 
TABS,ioos:station:wmo:42048:1,1997-10-02T04:30:00Z,27.9396,-96.8429,2.0,13.63954663,25.91070242,-99999.0,'11111222,11111222,99999999' 
TABS,ioos:station:wmo:42048:1,1997-10-02T05:00:00Z,27.9396,-96.8429,2.0,13.33357103,26.49415973,-99999.0,'11111222,11111222,99999999' 
TABS,ioos:station:wmo:42048:1,1997-10-02T05:30:00Z,27.9396,-96.8429,2.0,17.03458481,28.98144579,-99999.0,'11111222,11111222,99999999' 
TABS,ioos:station:wmo:42048:1,1997-10-02T06:00:00Z,27.9396,-96.8429,2.0,17.92084838,31.00421907,-99999.0,'11111222,11111222,99999999' 
TABS,ioos:station:wmo:42048:1,1997-10-02T06:30:00Z,27.9396,-96.8429,2.0,25.52453715,29.05578772,-99999.0,'11111222,11111222,99999999' 
TABS,ioos:station:wmo:42048:1,1997-10-02T07:00:00Z,27.9396,-96.8429,2.0,24.19881851,30.54390283,-99999.0,'11111222,11111222,99999999' 
TABS,ioos:station:wmo:42048:1,1997-10-02T07:30:00Z,27.9396,-96.8429,2.0,27.54295911,30.92485085,-99999.0,'11111222,11111222,99999999' 
TABS,ioos:station:wmo:42048:1,1997-10-02T08:00:00Z,27.9396,-96.8429,2.0,24.0184179,34.42025131,-99999.0,'11111222,11111222,99999999' 
TABS,ioos:station:wmo:42048:1,1997-10-02T08:30:00Z,27.9396,-96.8429,2.0,26.2423095,35.71057266,-99999.0,'11111222,11111222,99999999' 
TABS,ioos:station:wmo:42048:1,1997-10-02T09:00:00Z,27.9396,-96.8429,2.0,24.84525662,35.46212628,-99999.0,'11111222,11111222,99999999' 
TABS,ioos:station:wmo:42048:1,1997-10-02T09:30:00Z,27.9396,-96.8429,2.0,29.35314108,32.82407958,-99999.0,'11111222,11111222,99999999' 
TABS,ioos:station:wmo:42048:1,1997-10-02T10:00:00Z,27.9396,-96.8429,2.0,28.88722539,34.5487858,-99999.0,'11111222,11111222,99999999' 
TABS,ioos:station:wmo:42048:1,1997-10-02T10:30:00Z,27.9396,-96.8429,2.0,22.23920085,36.22464631,-99999.0,'11111222,11111222,99999999' 
TABS,ioos:station:wmo:42048:1,1997-10-02T11:00:00Z,27.9396,-96.8429,2.0,31.89696593,35.80679265,-99999.0,'11111222,11111222,99999999' 
TABS,ioos:station:wmo:42048:1,1997-10-02T11:30:00Z,27.9396,-96.8429,2.0,31.85592218,36.13227089,-99999.0,'11111222,11111222,99999999' 
TABS,ioos:station:wmo:42048:1,1997-10-02T12:00:00Z,27.9396,-96.8429,2.0,30.37100137,37.12457138,-99999.0,'11111222,11111222,99999999' 
TABS,ioos:station:wmo:42048:1,1997-10-02T12:30:00Z,27.9396,-96.8429,2.0,29.23714955,37.22180544,-99999.0,'11111222,11111222,99999999' 
TABS,ioos:station:wmo:42048:1,1997-10-02T13:00:00Z,27.9396,-96.8429,2.0,34.09323654,35.0912026,-99999.0,'11111222,11111222,99999999' 
TABS,ioos:station:wmo:42048:1,1997-10-02T13:30:00Z,27.9396,-96.8429,2.0,31.01500576,32.68249837,-99999.0,'11111222,11111222,99999999' 
TABS,ioos:station:wmo:42048:1,1997-10-02T14:00:00Z,27.9396,-96.8429,2.0,34.66548904,34.05520518,-99999.0,'11111222,11111222,99999999' 
TABS,ioos:station:wmo:42048:1,1997-10-02T14:30:00Z,27.9396,-96.8429,2.0,38.74376989,30.95054927,-99999.0,'11111222,11111222,99999999' 
TABS,ioos:station:wmo:42048:1,1997-10-02T15:00:00Z,27.9396,-96.8429,2.0,32.29655816,30.6756744,-99999.0,'11111222,11111222,99999999' 
TABS,ioos:station:wmo:42048:1,1997-10-02T15:30:00Z,27.9396,-96.8429,2.0,35.91737053,34.04270553,-99999.0,'11111222,11111222,99999999' 
TABS,ioos:station:wmo:42048:1,1997-10-02T16:00:00Z,27.9396,-96.8429,2.0,32.33566721,29.80127514,-99999.0,'11111222,11111222,99999999' 
TABS,ioos:station:wmo:42048:1,1997-10-02T16:30:00Z,27.9396,-96.8429,2.0,29.55784832,28.096498,-99999.0,'11111222,11111222,99999999' 
TABS,ioos:station:wmo:42048:1,1997-10-02T17:00:00Z,27.9396,-96.8429,2.0,24.2015805,25.80829324,-99999.0,'11111222,11111222,99999999' 
TABS,ioos:station:wmo:42048:1,1997-10-02T17:30:00Z,27.9396,-96.8429,2.0,25.69082813,25.78933888,-99999.0,'11111222,11111222,99999999' 
TABS,ioos:station:wmo:42048:1,1997-10-02T18:00:00Z,27.9396,-96.8429,2.0,27.57746513,22.52966489,-99999.0,'11111222,11111222,99999999' 
TABS,ioos:station:wmo:42048:1,1997-10-02T18:30:00Z,27.9396,-96.8429,2.0,27.75660096,25.59509523,-99999.0,'11111222,11111222,99999999' 
TABS,ioos:station:wmo:42048:1,1997-10-02T19:00:00Z,27.9396,-96.8429,2.0,16.99777682,22.44025847,-99999.0,'11111222,11111222,99999999' 
TABS,ioos:station:wmo:42048:1,1997-10-02T19:30:00Z,27.9396,-96.8429,2.0,13.94115527,20.42152786,-99999.0,'11111222,11111222,99999999' 
TABS,ioos:station:wmo:42048:1,1997-10-02T20:00:00Z,27.9396,-96.8429,2.0,9.041609118,19.91747474,-99999.0,'11111222,11111222,99999999' 
TABS,ioos:station:wmo:42048:1,1997-10-02T20:30:00Z,27.9396,-96.8429,2.0,10.55226714,20.31352505,-99999.0,'11111222,11111222,99999999' 
TABS,ioos:station:wmo:42048:1,1997-10-02T21:00:00Z,27.9396,-96.8429,2.0,4.86989797,21.08611391,-99999.0,'11111222,11111222,99999999' 
TABS,ioos:station:wmo:42048:1,1997-10-02T21:30:00Z,27.9396,-96.8429,2.0,9.848559267,18.29966666,-99999.0,'11111222,11111222,99999999' 
TABS,ioos:station:wmo:42048:1,1997-10-02T22:00:00Z,27.9396,-96.8429,2.0,4.181325146,18.37891455,-99999.0,'11111222,11111222,99999999' 
TABS,ioos:station:wmo:42048:1,1997-10-02T22:30:00Z,27.9396,-96.8429,2.0,353.1038532,17.4059329,-99999.0,'11111222,11111222,99999999' 
TABS,ioos:station:wmo:42048:1,1997-10-02T23:00:00Z,27.9396,-96.8429,2.0,347.7372004,14.0301283,-99999.0,'11111222,11111222,99999999' 
TABS,ioos:station:wmo:42048:1,1997-10-02T23:30:00Z,27.9396,-96.8429,2.0,358.2875619,15.05672607,-99999.0,'11111222,11111222,99999999' 
TABS,ioos:station:wmo:42048:1,1997-10-03T00:00:00Z,27.9396,-96.8429,2.0,358.1202843,13.71738313,-99999.0,'11111222,11111222,99999999' 
TABS,ioos:station:wmo:42048:1,1997-10-03T00:30:00Z,27.9396,-96.8429,2.0,2.846035871,12.08490381,-99999.0,'11111222,11111222,99999999' 
TABS,ioos:station:wmo:42048:1,1997-10-03T01:00:00Z,27.9396,-96.8429,2.0,2.506688181,10.28984451,-99999.0,'11111222,11111222,99999999' 
TABS,ioos:station:wmo:42048:1,1997-10-03T01:30:00Z,27.9396,-96.8429,2.0,353.8742825,9.745650312,-99999.0,'11133222,11111222,99999999' 
TABS,ioos:station:wmo:42048:1,1997-10-03T02:00:00Z,27.9396,-96.8429,2.0,357.2120411,9.250951302,-99999.0,'11133222,11111222,99999999' 
TABS,ioos:station:wmo:42048:1,1997-10-03T02:30:00Z,27.9396,-96.8429,2.0,353.0164556,8.553461288,-99999.0,'11133222,11111222,99999999' 
TABS,ioos:station:wmo:42048:1,1997-10-03T03:00:00Z,27.9396,-96.8429,2.0,358.1099512,9.094949148,-99999.0,'11133222,11111222,99999999' 
TABS,ioos:station:wmo:42048:1,1997-10-03T03:30:00Z,27.9396,-96.8429,2.0,348.6903044,7.597539075,-99999.0,'11133222,11111222,99999999' 
TABS,ioos:station:wmo:42048:1,1997-10-03T04:00:00Z,27.9396,-96.8429,2.0,0.000210459,3.43,-99999.0,'11133222,11111222,99999999' 
TABS,ioos:station:wmo:42048:1,1997-10-03T04:30:00Z,27.9396,-96.8429,2.0,2.060316665,4.17269697,-99999.0,'11133222,11111222,99999999' 
TABS,ioos:station:wmo:42048:1,1997-10-03T05:00:00Z,27.9396,-96.8429,2.0,8.813091488,3.916235437,-99999.0,'11133222,11111222,99999999' 
TABS,ioos:station:wmo:42048:1,1997-10-03T05:30:00Z,27.9396,-96.8429,2.0,357.9401043,4.17269697,-99999.0,'11133222,11111222,99999999' 
TABS,ioos:station:wmo:42048:1,1997-10-03T06:00:00Z,27.9396,-96.8429,2.0,356.6072073,2.53444274,-99999.0,'11133222,11111222,99999999' 
TABS,ioos:station:wmo:42048:1,1997-10-03T06:30:00Z,27.9396,-96.8429,2.0,75.88849946,1.8456977,-99999.0,'11133222,11111222,99999999' 
TABS,ioos:station:wmo:42048:1,1997-10-03T07:00:00Z,27.9396,-96.8429,2.0,65.87907329,1.468196172,-99999.0,'11133222,11111222,99999999' 
TABS,ioos:station:wmo:42048:1,1997-10-03T07:30:00Z,27.9396,-96.8429,2.0,165.9635789,0.618465844,-99999.0,'11133222,11111222,99999999' 
TABS,ioos:station:wmo:42048:1,1997-10-03T08:00:00Z,27.9396,-96.8429,2.0,0.0,0.0,-99999.0,'11133222,11111222,99999999' 
TABS,ioos:station:wmo:42048:1,1997-10-03T08:30:00Z,27.9396,-96.8429,2.0,195.6340692,2.782966044,-99999.0,'11133222,11111222,99999999' 
TABS,ioos:station:wmo:42048:1,1997-10-03T09:00:00Z,27.9396,-96.8429,2.0,179.9997895,3.87,-99999.0,'11133222,11111222,99999999' 
TABS,ioos:station:wmo:42048:1,1997-10-03T09:30:00Z,27.9396,-96.8429,2.0,221.9656518,2.003921156,-99999.0,'11133222,11111222,99999999' 
TABS,ioos:station:wmo:42048:1,1997-10-03T10:00:00Z,27.9396,-96.8429,2.0,189.0347634,2.865554048,-99999.0,'11133222,11111222,99999999' 
TABS,ioos:station:wmo:42048:1,1997-10-03T10:30:00Z,27.9396,-96.8429,2.0,199.9407615,3.489197615,-99999.0,'11133222,11111222,99999999' 
TABS,ioos:station:wmo:42048:1,1997-10-03T11:00:00Z,27.9396,-96.8429,2.0,184.4286481,5.827400793,-99999.0,'11133222,11111222,99999999' 
TABS,ioos:station:wmo:42048:1,1997-10-03T11:30:00Z,27.9396,-96.8429,2.0,193.4638519,7.043585735,-99999.0,'11133222,11111222,99999999' 
TABS,ioos:station:wmo:42048:1,1997-10-03T12:00:00Z,27.9396,-96.8429,2.0,213.6670148,6.98090252,-99999.0,'11133222,11111222,99999999' 
TABS,ioos:station:wmo:42048:1,1997-10-03T12:30:00Z,27.9396,-96.8429,2.0,205.1061769,7.730355749,-99999.0,'11133222,11111222,99999999' 
TABS,ioos:station:wmo:42048:1,1997-10-03T13:00:00Z,27.9396,-96.8429,2.0,210.5848357,11.41862514,-99999.0,'11111222,11111222,99999999' 
TABS,ioos:station:wmo:42048:1,1997-10-03T13:30:00Z,27.9396,-96.8429,2.0,213.4635529,10.53661236,-99999.0,'11111222,11111222,99999999' 
TABS,ioos:station:wmo:42048:1,1997-10-03T14:00:00Z,27.9396,-96.8429,2.0,208.0064788,13.33118524,-99999.0,'11111222,11111222,99999999' 
TABS,ioos:station:wmo:42048:1,1997-10-03T14:30:00Z,27.9396,-96.8429,2.0,204.685868,12.13943162,-99999.0,'11111222,11111222,99999999' 
TABS,ioos:station:wmo:42048:1,1997-10-03T15:00:00Z,27.9396,-96.8429,2.0,204.7270461,16.73439572,-99999.0,'11111222,11111222,99999999' 
TABS,ioos:station:wmo:42048:1,1997-10-03T15:30:00Z,27.9396,-96.8429,2.0,208.8739494,18.20295855,-99999.0,'11111222,11111222,99999999' 
TABS,ioos:station:wmo:42048:1,1997-10-03T16:00:00Z,27.9396,-96.8429,2.0,212.3823205,18.35426109,-99999.0,'11111222,11111222,99999999' 
TABS,ioos:station:wmo:42048:1,1997-10-03T16:30:00Z,27.9396,-96.8429,2.0,213.9461514,19.21500716,-99999.0,'11111222,11111222,99999999' 
TABS,ioos:station:wmo:42048:1,1997-10-03T17:00:00Z,27.9396,-96.8429,2.0,217.7456729,17.52804895,-99999.0,'11111222,11111222,99999999' 
TABS,ioos:station:wmo:42048:1,1997-10-03T17:30:00Z,27.9396,-96.8429,2.0,225.3767893,16.11531259,-99999.0,'11111222,11111222,99999999' 
TABS,ioos:station:wmo:42048:1,1997-10-03T18:00:00Z,27.9396,-96.8429,2.0,227.5903487,13.92302051,-99999.0,'11111222,11111222,99999999' 
TABS,ioos:station:wmo:42048:1,1997-10-03T18:30:00Z,27.9396,-96.8429,2.0,224.523026,12.74957646,-99999.0,'11111222,11111222,99999999' 
TABS,ioos:station:wmo:42048:1,1997-10-03T19:00:00Z,27.9396,-96.8429,2.0,228.4562954,10.55509356,-99999.0,'11111222,11111222,99999999' 
TABS,ioos:station:wmo:42048:1,1997-10-03T19:30:00Z,27.9396,-96.8429,2.0,223.109425,12.86220043,-99999.0,'11111222,11111222,99999999' 
TABS,ioos:station:wmo:42048:1,1997-10-03T20:00:00Z,27.9396,-96.8429,2.0,223.8067498,15.28389021,-99999.0,'11111222,11111222,99999999' 
TABS,ioos:station:wmo:42048:1,1997-10-03T20:30:00Z,27.9396,-96.8429,2.0,224.1419406,13.69819331,-99999.0,'11111222,11111222,99999999' 
TABS,ioos:station:wmo:42048:1,1997-10-03T21:00:00Z,27.9396,-96.8429,2.0,234.6956421,16.24806758,-99999.0,'11111222,11111222,99999999' 
TABS,ioos:station:wmo:42048:1,1997-10-03T21:30:00Z,27.9396,-96.8429,2.0,235.5682284,16.07655747,-99999.0,'11111222,11111222,99999999' 
TABS,ioos:station:wmo:42048:1,1997-10-03T22:00:00Z,27.9396,-96.8429,2.0,232.214536,16.77814054,-99999.0,'11111222,11111222,99999999' 
TABS,ioos:station:wmo:42048:1,1997-10-03T22:30:00Z,27.9396,-96.8429,2.0,237.2376244,15.41159304,-99999.0,'11111222,11111222,99999999' 
TABS,ioos:station:wmo:42048:1,1997-10-03T23:00:00Z,27.9396,-96.8429,2.0,237.8661075,18.48110927,-99999.0,'11111222,11111222,99999999' 
TABS,ioos:station:wmo:42048:1,1997-10-03T23:30:00Z,27.9396,-96.8429,2.0,225.3114094,19.49522249,-99999.0,'11111222,11111222,99999999' 
TABS,ioos:station:wmo:42048:1,1997-10-04T00:00:00Z,27.9396,-96.8429,2.0,217.9491498,18.89535393,-99999.0,'11111222,11111222,99999999' 
TABS,ioos:station:wmo:42048:1,1997-10-04T00:30:00Z,27.9396,-96.8429,2.0,229.3129863,19.64958269,-99999.0,'11111222,11111222,99999999' 
TABS,ioos:station:wmo:42048:1,1997-10-04T01:00:00Z,27.9396,-96.8429,2.0,221.4014751,18.47777043,-99999.0,'11111222,11111222,99999999' 
TABS,ioos:station:wmo:42048:1,1997-10-04T01:30:00Z,27.9396,-96.8429,2.0,228.9406716,19.95932364,-99999.0,'11111222,11111222,99999999' 
TABS,ioos:station:wmo:42048:1,1997-10-04T02:00:00Z,27.9396,-96.8429,2.0,221.9168042,17.61831433,-99999.0,'11111222,11111222,99999999' 
TABS,ioos:station:wmo:42048:1,1997-10-04T02:30:00Z,27.9396,-96.8429,2.0,212.8184288,18.96739307,-99999.0,'11111222,11111222,99999999' 
TABS,ioos:station:wmo:42048:1,1997-10-04T03:00:00Z,27.9396,-96.8429,2.0,214.8163612,20.87740405,-99999.0,'11111222,11111222,99999999' 
TABS,ioos:station:wmo:42048:1,1997-10-04T03:30:00Z,27.9396,-96.8429,2.0,217.8295007,21.13096543,-99999.0,'11111222,11111222,99999999' 
TABS,ioos:station:wmo:42048:1,1997-10-04T04:00:00Z,27.9396,-96.8429,2.0,217.3116789,18.92256325,-99999.0,'11111222,11111222,99999999' 
TABS,ioos:station:wmo:42048:1,1997-10-04T04:30:00Z,27.9396,-96.8429,2.0,217.907938,19.64522588,-99999.0,'11111222,11111222,99999999' 
TABS,ioos:station:wmo:42048:1,1997-10-04T05:00:00Z,27.9396,-96.8429,2.0,215.5408472,19.23317187,-99999.0,'11111222,11111222,99999999' 
TABS,ioos:station:wmo:42048:1,1997-10-04T05:30:00Z,27.9396,-96.8429,2.0,207.2199734,17.59900565,-99999.0,'11111222,11111222,99999999' 
TABS,ioos:station:wmo:42048:1,1997-10-04T06:00:00Z,27.9396,-96.8429,2.0,209.0010737,15.6755893,-99999.0,'11111222,11111222,99999999' 
TABS,ioos:station:wmo:42048:1,1997-10-04T06:30:00Z,27.9396,-96.8429,2.0,202.784563,13.09159272,-99999.0,'11111222,11111222,99999999' 
TABS,ioos:station:wmo:42048:1,1997-10-04T07:00:00Z,27.9396,-96.8429,2.0,207.9710995,13.66649187,-99999.0,'11111222,11111222,99999999' 
TABS,ioos:station:wmo:42048:1,1997-10-04T07:30:00Z,27.9396,-96.8429,2.0,206.5647786,12.99155495,-99999.0,'11111222,11111222,99999999' 
TABS,ioos:station:wmo:42048:1,1997-10-04T08:00:00Z,27.9396,-96.8429,2.0,210.9333181,13.03389428,-99999.0,'11111222,11111222,99999999' 
TABS,ioos:station:wmo:42048:1,1997-10-04T08:30:00Z,27.9396,-96.8429,2.0,198.8416376,12.91190536,-99999.0,'11111222,11111222,99999999' 
TABS,ioos:station:wmo:42048:1,1997-10-04T09:00:00Z,27.9396,-96.8429,2.0,210.8442321,9.888629834,-99999.0,'11133222,11111222,99999999' 
TABS,ioos:station:wmo:42048:1,1997-10-04T09:30:00Z,27.9396,-96.8429,2.0,201.511117,11.37212821,-99999.0,'11111222,11111222,99999999' 
TABS,ioos:station:wmo:42048:1,1997-10-04T10:00:00Z,27.9396,-96.8429,2.0,201.9395908,10.7592193,-99999.0,'11111222,11111222,99999999' 
TABS,ioos:station:wmo:42048:1,1997-10-04T10:30:00Z,27.9396,-96.8429,2.0,196.9973559,11.22012923,-99999.0,'11111222,11111222,99999999' 
TABS,ioos:station:wmo:42048:1,1997-10-04T11:00:00Z,27.9396,-96.8429,2.0,201.0777326,11.17789336,-99999.0,'11111222,11111222,99999999' 
TABS,ioos:station:wmo:42048:1,1997-10-04T11:30:00Z,27.9396,-96.8429,2.0,202.8492279,12.28394481,-99999.0,'11111222,11111222,99999999' 
TABS,ioos:station:wmo:42048:1,1997-10-04T12:00:00Z,27.9396,-96.8429,2.0,200.4424548,10.65076523,-99999.0,'11111222,11111222,99999999' 
TABS,ioos:station:wmo:42048:1,1997-10-04T12:30:00Z,27.9396,-96.8429,2.0,192.9598241,9.943289194,-99999.0,'11133222,11111222,99999999' 
TABS,ioos:station:wmo:42048:1,1997-10-04T13:00:00Z,27.9396,-96.8429,2.0,189.8439443,11.34707011,-99999.0,'11111222,11111222,99999999' 
TABS,ioos:station:wmo:42048:1,1997-10-04T13:30:00Z,27.9396,-96.8429,2.0,183.555428,12.09327913,-99999.0,'11111222,11111222,99999999' 
TABS,ioos:station:wmo:42048:1,1997-10-04T14:00:00Z,27.9396,-96.8429,2.0,189.5474291,14.34875953,-99999.0,'11111222,11111222,99999999' 
TABS,ioos:station:wmo:42048:1,1997-10-04T14:30:00Z,27.9396,-96.8429,2.0,184.6122955,14.79792553,-99999.0,'11111222,11111222,99999999' 
TABS,ioos:station:wmo:42048:1,1997-10-04T15:00:00Z,27.9396,-96.8429,2.0,192.4145145,15.25674933,-99999.0,'11111222,11111222,99999999' 
TABS,ioos:station:wmo:42048:1,1997-10-04T15:30:00Z,27.9396,-96.8429,2.0,191.4217031,15.0480198,-99999.0,'11111222,11111222,99999999' 
TABS,ioos:station:wmo:42048:1,1997-10-04T16:00:00Z,27.9396,-96.8429,2.0,191.8196925,16.74505897,-99999.0,'11111222,11111222,99999999' 